Terug naar catalogus

STARLINK-37624

ActiefCommunicatieVLEO
NORAD 69833·PAYLOAD·🇺🇸 United States

Gelanceerd Jul 5, 2026 vanaf Cape Canaveral Space Force Station

Loading…

Volgende Passages (komende 24 uur)

TLE

VersSource: CelesTrak SupGP

Epoch: Sep 15, 2026, 04:04 UTC

1 69833C 26154Q   26258.16993056  .00074952  00000+0  22138-2 0  2581
2 69833  53.1585 356.5532 0001274  88.2922 181.2435 15.34363218    13

Volg STARLINK-37624 in realtime met AllMySat

Download on the App Store